Miscellaneous Local Product
Issued by NWS North Platte, NE

Home | Current Version | Previous Version | Text Only | Print | Product List | Glossary On
Versions: 1 2 3 4 5 6 7 8 9 10 11 12 13 14 15 16 17 18 19 20 21 22 23 24 25 26 27 28 29 30 31 32 33 34 35 36 37 38 39 40 41 42 43 44 45 46 47 48 49 50
000
AXUS43 KLBF 241310
MISLBF


WESTERN AND NORTH CENTRAL NEBRASKA HOURLY WEATHER ROUNDUP
NATIONAL WEATHER SERVICE NORTH PLATTE NE
800 AM CDT TUE APR 24 2018

NOTE: "FAIR" INDICATES FEW OR NO CLOUDS BELOW 12,000 FEET WITH NO
SIGNIFICANT WEATHER AND/OR OBSTRUCTIONS TO VISIBILITY.

NOTE: STATIONS NOT REPORTING VARIABLES SUCH AS SKY/WEATHER OR
PRESSURE ARE PROVIDED BY RAWS AND APRS NETWORKS AND ARE NOT UNDER
NATIONAL WEATHER SERVICE QUALITY CONTROL.

...OBSERVATIONS IN AND NEAR THE EASTERN PANHANDLE OF NEBRASKA...

CITY           SKY/WX    TMP DP  RH WIND       PRES   REMARKS
PINE RIDGE     LGT RAIN  35  33  92 N18G26    30.40R WCI  24
GORDON         CLOUDY    35  33  92 N23G33    30.34R FOG     WCI  23
CHADRON        CLOUDY    36  31  82 N22G32    30.43R WCI  25
ALLIANCE       CLOUDY    35  34  96 N13       30.36R WCI  26
SIDNEY         LGT SNOW  34  32  92 N23       30.35R FOG     WCI  22
CRESCENT LAKE    N/A     36  33  88 N25G37      N/A  WCI  24
$$

...OBSERVATIONS IN NORTHERN NEBRASKA AND FAR SOUTHERN SOUTH DAKOTA...

CITY           SKY/WX    TMP DP  RH WIND       PRES   REMARKS
WINNER         CLOUDY    46  41  82 NW17G29   30.18R
VALENTINE      CLOUDY    40  37  89 NW22G33   30.26R WCI  30
AINSWORTH      CLOUDY    40  39  95 NW22G31   30.24R WCI  30
O`NEILL        CLOUDY    47  43  85 NW14      30.19S
THEDFORD       CLOUDY    40  37  91 NW21G29   30.28R WCI  30
BROKEN BOW     LGT RAIN  43  39  86 NW22G31   30.22R
ORD            CLOUDY    46  40  79 NW20G30   30.20R
ALBION         CLOUDY    53  45  74 NW15      30.17R
VALENTINE NWR    N/A     37  35  93 NW23G35     N/A  WCI  26
HALSEY           N/A     39  39  99 NW12G23     N/A  WCI  32
BUTTE            N/A     44  42  91 NW8G18      N/A
CHAMBERS         N/A     47  42  84 W3          N/A
EWING            N/A     46  41  84 NW13G20     N/A
$$

...OBSERVATIONS IN SOUTHWEST NEBRASKA AND FAR NORTHEAST COLORADO...

CITY           SKY/WX    TMP DP  RH WIND       PRES   REMARKS
WRAY           LGT RAIN  37  36  93 N15G22    30.34R WCI  28
HOLYOKE        CLOUDY    39  34  81 N26G33    30.33R WCI  28
IMPERIAL       LGT RAIN  40  38  93 NW22G32   30.31R WCI  30
OGALLALA       LGT RAIN  41  37  86 NW20G25   30.31R
NORTH PLATTE   LGT RAIN  42  38  85 N14       30.29R
MCCOOK         CLOUDY    45  43  93 NW17      30.26R
LEXINGTON      DRIZZLE   46  40  80 NW17      30.25R
STAPLETON        N/A     39  37  92 CALM        N/A
GOTHENBURG       N/A     44  37  77 NW13        N/A
CALLAWAY         N/A     42  39  90 NW21        N/A
$$

...OBSERVATIONS IN CENTRAL LINCOLN COUNTY AREA...

CITY           SKY/WX    TMP DP  RH WIND       PRES   REMARKS
N.P. AIRPORT   LGT RAIN  42  38  85 N14       30.29R
N.P. DOWNTOWN    N/A     40  39  96 NW5         N/A
N.P. SOUTHEAST   N/A     40  37  90 NW6         N/A
N.P. HILLCREST   N/A     40  39  96 NW15G22     N/A  WCI  32
$$

...OBSERVATIONS ACROSS THE ROCKIES AND WESTERN HIGH PLAINS...

CITY           SKY/WX    TMP DP  RH WIND       PRES   REMARKS
RAPID CITY     LGT SNOW  34  31  88 N23G30    30.43R FOG     WCI  22
SCOTTSBLUFF    CLOUDY    37  33  85 NW17G25   30.40R WCI  27
CHEYENNE       CLOUDY    30  27  88 MISG      30.36R
DENVER         LGT SNOW  32  30  92 N12       30.40R FOG     WCI  23
BERTHOUD PASS  FAIR      21  10  63 W8        30.36S WCI  12
MONARCH PASS   FLURRIES  28  27  93 NW8       30.51R WCI  20
ASPEN          PTCLDY    38  34  85 SW6       30.24S WCI  33
STEAMBOAT      CLOUDY    32  29  88 W3        30.31R
LARAMIE        CLOUDY    27  23  85 N14       30.36R WCI  16
CASPER         CLOUDY    31  26  82 N9        30.46R WCI  23
$$

...OBSERVATIONS ACROSS THE NORTHERN PLAINS...

CITY           SKY/WX    TMP DP  RH WIND       PRES   REMARKS
BISMARCK       PTSUNNY   40  31  70 N12       30.41R WCI  33
FARGO          LGT RAIN  42  39  89 N6        30.34R
PIERRE         CLOUDY    39  36  89 N31G43    30.26R WCI  27
SIOUX FALLS    CLOUDY    48  41  76 CALM      30.17R
$$

...OBSERVATIONS ACROSS THE CENTRAL AND SOUTHERN PLAINS...

CITY           SKY/WX    TMP DP  RH WIND       PRES   REMARKS
OMAHA          MOSUNNY   46  38  73 NW3       30.14R
GRAND ISLAND   CLOUDY    52  44  74 W8        30.19R
KANSAS CITY    MOSUNNY   52  35  52 N7        30.11R
WICHITA        MOSUNNY   51  45  79 NW5       30.13R
DODGE CITY     CLOUDY    53  45  74 SW3       30.18R
OKLAHOMA CITY  MOSUNNY   59  50  72 N5        30.13R
DALLAS         SUNNY     59  54  83 CALM      30.08R
AMARILLO       SUNNY     51  43  74 SE18      30.08R
$$




USA.gov is the U.S. government's official web portal to all federal, state and local government web resources and services.